Regional Weather Roundup
Issued by NWS

Home | Current Version | Previous Version | Graphics & Text | Print | Product List | Glossary On
Versions: 1 2 3 4 5 6 7 8 9 10 11 12 13 14 15 16 17 18 19 20 21 22 23 24 25 26 27 28 29 30 31 32 33 34 35 36 37 38 39 40 41 42 43 44 45 46 47 48 49 50
919
ASUS45 KSLC 050310
RWRUT

UTAH REGIONAL WEATHER ROUNDUP
NATIONAL WEATHER SERVICE SALT LAKE CITY UT
800 PM MST SUN DEC 04 2016

UTZ001>011-023>025-050400-

NORTHERN UTAH

CITY           SKY/WX    TMP DP  RH WIND       PRES   REMARKS
BRIGHAM CITY     N/A     40  19  43 CALM      29.85F
HILL AFB       CLOUDY    38  19  45 S14       29.83S WCI  30
LOGAN          CLOUDY   N/A N/A N/A E5        29.82F
OGDEN          CLOUDY    39  22  50 N5        29.86R
SALT LAKE CITY CLOUDY    41  20  43 E7        29.83F
TOOELE VALLEY  CLOUDY    41  25  52 S20       29.82F
WENDOVER       CLOUDY    34  18  51 CALM      29.85F
HEBER CITY     CLOUDY    32  23  69 E6        29.87F WCI  26
WEST JORDAN    CLOUDY    41  25  52 S15       29.85F

$$

UTZ011>015-024>027-050400-

CENTRAL/NORTHEAST UTAH

CITY           SKY/WX    TMP DP  RH WIND       PRES   REMARKS
PROVO AIRPORT  CLOUDY    32  26  78 CALM      29.90F
MOAB/CANYONLAN CLEAR     28  15  58 CALM      30.01F
DELTA          MOCLDY    32  19  59 NW9       29.92S WCI  24
PRICE          CLEAR     23  13  65 E6        29.99F WCI  16
RICHFIELD      PTCLDY    28  23  80 E1        29.96F
ROOSEVELT      CLOUDY    23  16  74 CALM      29.96F
VERNAL         CLOUDY    23  16  74 W5        29.94F WCI  17

$$

UTZ013>016-019>022-027-050400-

SOUTHERN UTAH

CITY           SKY/WX    TMP DP  RH WIND       PRES   REMARKS
BRYCE CANYON   CLEAR     18  12  77 W6        30.05F WCI  10
CEDAR CITY     PTCLDY    35  16  45 S6        29.98F WCI  30
MILFORD        CLEAR     43  15  32 S21       29.93F
ST GEORGE      CLOUDY    43  18  36 CALM      30.03F
HANKSVILLE     CLEAR     30  16  55 N8        30.05S WCI  23
BLANDING       CLEAR     26  12  55 N5        30.13F WCI  21

$$

REGIONAL REPORTS     COLORADO/ARIZONA

CITY           SKY/WX    TMP DP  RH WIND       PRES   REMARKS
CRAIG, CO      CLOUDY    27  17  66 S3        29.92F
GRAND JUNCTION CLOUDY    29  19  66 NE5       30.02F WCI  24
RIFLE, CO      CLOUDY    32  19  58 SW3       30.02F
MONTROSE, CO   CLOUDY    27  19  72 S3        30.05F
CORTEZ, CO     CLOUDY    24  19  81 NE6       30.08S WCI  17
COLORADO CITY    N/A     32  21  64 S3        30.06F
PAGE, AZ       CLEAR     37  14  38 CALM      30.03F
GRAND CANYON   CLEAR     25  20  81 CALM      30.10S
KINGMAN, AZ    CLEAR     39  16  39 CALM      30.02R
FLAGSTAFF, AZ  CLEAR     30  15  53 SW5       30.11S WCI  25

$$

REGIONAL REPORTS    NEVADA/IDAHO/WYOMING

CITY           SKY/WX    TMP DP  RH WIND       PRES   REMARKS
LAS VEGAS, NV  MOCLDY    52  14  22 SW5       29.98F
ELY, NY        PTCLDY    29  18  63 CALM      29.96S
ELKO, NV       CLOUDY    39  22  50 CALM      29.87F
POCATELLO, ID  LGT RAIN  37  31  78 W23G35    29.78R WCI  26
BURLEY, ID     CLOUDY    40  30  67 W12       29.77R WCI  33
FORT BRIDGER,  MOCLDY    33  27  79 SW20      29.84F WCI  21
EVANSTON, WY   CLOUDY    31  23  72 SW9       29.83F WCI  23
ROCK SPRINGS,  CLOUDY    35  21  56 SW22G30   29.79F WCI  23
KEMMERER, WY     N/A     32  23  69 SW23      29.79F WCI  19

$$




USA.gov is the U.S. government's official web portal to all federal, state and local government web resources and services.